"Time","Temp","Dewpoint","Humidity","Pressure","Direction","Speed","Gust","Precip","PrecipRate"
"00:04:59","77.3","60","55.2","29.73","160","2.9","10.8","0.00","0.00"
"00:09:59","77.3","60.1","55.4","29.73","171","2.9","10.4","0.00","0.00"
"00:14:58","77.2","60.3","56","29.73","160","2.6","4.8","0.00","0.00"
"00:19:56","77.1","60.2","56","29.72","157","1.8","4.8","0.00","0.00"
"00:24:57","77","60.3","56.4","29.72","176","1.9","10.8","0.00","0.00"
"00:29:57","76.9","60.4","56.8","29.72","178","1.2","4.8","0.00","0.00"
"00:34:57","76.7","60.3","57","29.72","130","1.3","4.6","0.00","0.00"
"00:39:58","76.6","60.3","57.2","29.72","164","1.5","6","0.00","0.00"
"00:44:58","76.5","60.3","57.4","29.72","168","4","12","0.00","0.00"
"00:49:58","76.3","60.4","58","29.71","177","3.3","10.4","0.00","0.00"
"00:54:58","76.3","60.7","58.7","29.71","180","3.9","8.4","0.00","0.00"
"00:59:58","76.2","60.8","59","29.71","181","3.8","8.4","0.00","0.00"
"01:04:56","76","60.7","59.1","29.71","162","3.4","8.1","0.00","0.00"
"01:09:58","75.9","61","60","29.71","167","3.9","7.2","0.00","0.00"
"01:14:59","75.8","60.9","60","29.71","157","3.2","7.2","0.00","0.00"
"01:19:59","75.7","60.9","60.2","29.71","177","3.6","7.2","0.00","0.00"
"01:24:59","75.6","61.2","61","29.71","160","3.9","7.2","0.00","0.00"
"01:29:56","75.5","61.1","61","29.71","157","3.5","10.8","0.00","0.00"
"01:34:57","75.4","61","61","29.71","164","3.3","7.2","0.00","0.00"
"01:39:58","75.2","61.3","61.9","29.71","159","3.6","6.9","0.00","0.00"
"01:44:58","75.1","61.4","62.4","29.71","151","3.3","6","0.00","0.00"
"01:49:59","75","61.5","63","29.70","154","2.4","4.8","0.00","0.00"
"01:54:59","74.8","61.5","63.4","29.70","168","2.5","7.2","0.00","0.00"
"01:59:59","74.6","61.6","64","29.70","159","3.8","12","0.00","0.00"
"02:04:57","74.6","61.6","64","29.70","172","3","8.4","0.00","0.00"
"02:09:56","74.5","61.6","64.3","29.70","169","2.4","4.8","0.00","0.00"
"02:14:56","74.3","61.8","65","29.70","161","3.3","8.4","0.00","0.00"
"02:19:57","74.2","61.8","65.3","29.70","180","1.9","6","0.00","0.00"
"02:24:57","74.1","61.9","65.9","29.70","170","2.9","7.2","0.00","0.00"
"02:29:57","74.1","62","66","29.70","175","2.6","7.2","0.00","0.00"
"02:34:57","74","61.9","66","29.70","170","4.2","10.8","0.00","0.00"
"02:39:59","74","62.1","66.6","29.70","148","3.6","8.4","0.00","0.00"
"02:44:59","73.9","62.2","67","29.70","147","3.3","9.6","0.00","0.00"
"02:49:59","73.8","62.2","67","29.69","162","3.3","7.2","0.00","0.00"
"02:54:59","73.7","62.4","67.6","29.69","167","2.7","10.8","0.00","0.00"
"02:59:59","73.6","62.7","68.9","29.69","164","5.1","13.2","0.00","0.00"
"03:04:59","73.4","63","70","29.69","166","3.7","12.7","0.00","0.00"
"03:09:56","73.3","63.1","70.5","29.69","166","3.5","8.4","0.00","0.00"
"03:14:58","73.2","63.2","71","29.69","148","2.6","6.9","0.00","0.00"
"03:19:58","73.1","63.1","71","29.69","173","2.9","6","0.00","0.00"
"03:24:59","73","62.8","70.6","29.69","149","3.2","7.2","0.00","0.00"
"03:29:59","72.9","62.6","70.2","29.69","147","2.5","7.2","0.00","0.00"
"03:34:58","72.8","62.5","70.2","29.69","147","2.5","6.9","0.00","0.00"
"03:39:56","72.7","62.7","71","29.69","176","2.1","7.2","0.00","0.00"
"03:44:57","72.4","62.6","71.2","29.69","161","1.7","4.8","0.00","0.00"
"03:49:59","72.2","62.7","72","29.69","135","1.8","4.8","0.00","0.00"
"03:54:59","72","62.5","72","29.69","136","1.8","4.8","0.00","0.00"
"03:59:56","71.9","62.4","72","29.69","167","2.5","7.2","0.00","0.00"
"04:04:58","71.8","62.6","72.7","29.69","158","2.2","7.2","0.00","0.00"
"04:09:56","71.7","62.9","73.7","29.69","187","3.5","8.4","0.00","0.00"
"04:14:58","71.6","63.1","74.5","29.69","179","2.2","6","0.00","0.00"
"04:19:58","71.5","63.2","75","29.69","153","1.2","10.8","0.00","0.00"
"04:24:59","71.3","63.3","76","29.69","180","3.1","8.1","0.00","0.00"
"04:29:56","71.2","63.5","77","29.69","191","2.2","5.8","0.00","0.00"
"04:34:56","71","63.6","77.6","29.69","173","3","8.4","0.00","0.00"
"04:39:57","71","63.8","78","29.69","154","2.3","8.4","0.00","0.00"
"04:44:57","70.9","63.7","78","29.69","177","3.5","10.8","0.00","0.00"
"04:49:58","70.8","63.6","78","29.68","171","2.3","5.8","0.00","0.00"
"04:54:58","70.8","63.7","78.5","29.68","167","2","6","0.00","0.00"
"04:59:58","70.6","63.8","79","29.68","175","2.9","5.8","0.00","0.00"
"05:04:56","70.6","63.9","79.4","29.68","161","3.7","8.4","0.00","0.00"
"05:09:58","70.6","64.1","80","29.68","148","2.9","7.2","0.00","0.00"
"05:14:59","70.6","64.1","80","29.68","172","3.1","7.2","0.00","0.00"
"05:19:57","70.6","64.1","80","29.68","183","3.5","7.2","0.00","0.00"
"05:24:56","70.6","64","79.7","29.68","191","3.5","8.4","0.00","0.00"
"05:29:59","70.8","64","79","29.69","166","3.3","9.6","0.00","0.00"
"05:34:59","70.9","63.8","78.2","29.69","155","3.1","7.2","0.00","0.00"
"05:39:57","70.9","63.7","78","29.69","171","3.5","7.2","0.00","0.00"
"05:44:57","70.9","63.8","78.2","29.69","167","3.5","8.4","0.00","0.00"
"05:49:58","70.9","64.1","78.9","29.69","162","3.9","9.6","0.00","0.00"
"05:54:58","70.9","64.1","79","29.69","181","3.3","6","0.00","0.00"
"05:59:59","70.8","64","79","29.69","177","3.5","8.4","0.00","0.00"
"06:04:57","70.8","64","79","29.69","175","3.6","8.1","0.00","0.00"
"06:09:56","70.8","64","79","29.69","153","3.3","6.9","0.00","0.00"
"06:14:57","70.9","64.1","79","29.69","162","3.6","9.6","0.00","0.00"
"06:19:57","71","64.2","79","29.68","155","3.9","9.6","0.00","0.00"
"06:24:57","71.1","64.4","79.3","29.68","177","3.9","7.2","0.00","0.00"
"06:29:57","71.1","64.6","80","29.68","158","3.7","8.4","0.00","0.00"
"06:34:57","71.2","64.7","79.9","29.68","158","2.8","6.9","0.00","0.00"
"06:39:58","71.3","64.5","79.3","29.68","148","1.9","7.2","0.00","0.00"
"06:44:58","71.4","64.3","78.6","29.68","119","2.3","6.9","0.00","0.00"
"06:49:58","71.4","64.3","78.2","29.68","137","1.9","4.8","0.00","0.00"
"06:54:58","71.5","64.3","78","29.68","138","2.8","8.4","0.00","0.00"
"06:59:58","71.5","64.3","78","29.68","155","3.6","13.2","0.00","0.00"
"07:04:57","71.5","64.5","78.9","29.68","158","3.3","13.2","0.00","0.00"
"07:09:58","71.3","64.6","79.3","29.68","159","2.8","7.2","0.00","0.00"
"07:14:59","71.2","64.7","80","29.68","152","1.5","5.8","0.00","0.00"
"07:19:56","71.1","64.8","80.4","29.68","165","2.1","6","0.00","0.00"
"07:24:56","71.1","65","81","29.68","140","1.7","7.2","0.00","0.00"
"07:29:57","71.1","65","81","29.68","161","3.2","7.2","0.00","0.00"
"07:34:57","71.2","65.3","81.7","29.68","173","2.9","8.4","0.00","0.00"
"07:39:58","71.3","65.5","82","29.68","170","3.4","7.2","0.00","0.00"
"07:44:58","71.3","65.5","82","29.68","149","4.2","12","0.00","0.00"
"07:49:59","71.3","65.5","82","29.68","142","3.1","6","0.00","0.00"
"07:54:59","71.3","65.5","82","29.68","147","3.3","7.2","0.00","0.00"
"07:59:56","71.2","65.5","82.2","29.68","189","3.1","7.2","0.00","0.00"
"08:04:58","71.3","65.5","82.1","29.68","167","5.1","12","0.00","0.00"
"08:09:56","71.3","65.5","82","29.68","192","4.4","12","0.00","0.00"
"08:14:58","71.4","65.7","82.5","29.68","163","2","7.2","0.00","0.00"
"08:19:58","71.5","65.9","82.6","29.68","200","3.2","7.2","0.00","0.00"
"08:24:58","71.6","65.9","82.3","29.68","177","3.3","8.4","0.00","0.00"
"08:29:58","71.7","65.9","82","29.68","200","1.8","4.8","0.00","0.00"
"08:34:58","71.9","66","81.8","29.67","162","2.7","10.8","0.00","0.00"
"08:39:59","72","66","81.4","29.67","194","3.5","10.8","0.00","0.00"
"08:44:55","72.2","66.1","81.3","29.67","149","3.1","10.8","0.00","0.00"
"08:49:57","72.2","66","81","29.67","160","4.1","10.8","0.00","0.00"
"08:54:58","72.2","66","81","29.67","182","4.1","8.4","0.00","0.00"
"08:59:58","72.2","66","81","29.67","154","1.7","6","0.00","0.00"
"09:04:57","72.3","66.3","81.4","29.67","168","1.8","4.8","0.00","0.00"
"09:09:59","72.4","66.1","80.8","29.67","190","2.8","7.2","0.00","0.00"
"09:14:56","72.3","66","80.6","29.67","195","3.5","7.2","0.00","0.00"
"09:19:57","72.2","66","81","29.67","193","4.3","10.8","0.00","0.00"
"09:24:57","72.1","65.9","81","29.67","166","3.1","10.4","0.00","0.00"
"09:29:58","72.2","66","81","29.67","179","3","7.2","0.00","0.00"
"09:34:58","72.2","66.1","81.2","29.67","162","3.7","8.4","0.00","0.00"
"09:39:59","72.3","66.2","81.2","29.67","193","3.4","8.4","0.00","0.00"
"09:44:59","72.4","66.5","81.5","29.67","149","2.1","8.4","0.00","0.00"
"09:49:59","72.6","66.3","80.4","29.66","159","3.1","8.4","0.00","0.00"
"09:54:59","72.8","66.5","80.7","29.66","167","2.8","6","0.00","0.00"
"09:59:59","72.8","66.5","80.7","29.66","156","3","8.4","0.00","0.00"
"10:04:57","72.8","66.5","80.7","29.66","152","3","8.1","0.00","0.00"
"10:09:59","72.8","66.3","80","29.66","162","2.9","5.8","0.00","0.00"
"10:14:56","72.8","66.4","80.2","29.66","175","3.3","12","0.00","0.00"
"10:19:56","72.6","66.1","80","29.66","184","4.6","11.5","0.00","0.00"
"10:24:56","72.5","66","80","29.66","168","3.3","10.4","0.00","0.00"
"10:29:56","72.4","66","80.3","29.66","186","3.8","8.4","0.00","0.00"
"10:34:56","72.5","66.1","80.4","29.66","173","3.3","8.4","0.00","0.00"
"10:39:57","72.5","66","80","29.66","165","3.5","7.2","0.00","0.00"
"10:44:58","72.5","66.3","80.9","29.66","166","2.4","6","0.00","0.00"
"10:49:58","72.6","66.2","80.6","29.65","165","2.7","6","0.00","0.00"
"10:54:59","72.6","66.1","80.1","29.65","158","2.6","6","0.00","0.00"
"10:59:59","72.6","66.1","80","29.65","164","3.9","7.2","0.00","0.00"
"11:04:57","72.5","66.2","80.5","29.65","189","4.7","12","0.00","0.00"
"11:09:59","72.6","66.3","80.7","29.65","195","3.1","6","0.00","0.00"
"11:14:57","72.8","66.5","80.9","29.65","190","3.5","12","0.00","0.00"
"11:19:57","72.8","66.3","80","29.65","171","4.5","12","0.00","0.00"
"11:24:58","72.8","66.3","80","29.65","178","4.1","9.6","0.00","0.00"
"11:29:58","72.7","66.3","80.2","29.65","153","3.3","10.8","0.00","0.00"
"11:34:59","72.6","66.4","81","29.65","185","3.8","8.4","0.00","0.00"
"11:39:56","72.5","66.5","81.3","29.65","179","3.4","7.2","0.00","0.00"
"11:44:56","72.4","66.8","82.6","29.65","174","3.4","7.2","0.00","0.00"
"11:49:57","72.3","66.8","83","29.65","162","2.1","6","0.00","0.00"
"11:54:58","72.1","66.7","83.2","29.65","171","2.7","6","0.00","0.00"
"11:59:58","72","66.6","83.2","29.65","156","2.4","8.4","0.00","0.00"
"12:04:56","71.8","66.7","83.9","29.64","182","3.1","7.2","0.00","0.00"
"12:09:58","71.7","66.8","84.7","29.64","168","2.9","7.2","0.00","0.00"
"12:14:59","71.5","66.8","85","29.64","183","3.5","9.6","0.00","0.00"
"12:19:56","71.7","66.9","85.2","29.64","166","3.2","7.2","0.00","0.00"
"12:24:56","71.9","67.5","86.1","29.64","179","1.7","6.9","0.00","0.00"
"12:29:56","72","67.5","85.7","29.64","147","2.1","6","0.00","0.00"
"12:34:56","72","67.2","85","29.64","146","3.7","7.2","0.00","0.00"
"12:39:57","72.1","67.6","85.9","29.64","173","3.3","7.2","0.00","0.00"
"12:44:58","72.1","67.7","86","29.64","182","3.7","7.2","0.01","0.01"
"12:49:58","72.1","67.7","86.3","29.63","175","3.1","7.2","0.01","0.01"
"12:54:58","72.2","68","86.7","29.63","162","2.8","6.9","0.01","0.01"
"12:59:59","72.5","68.4","87.1","29.63","143","2","6","0.01","0.01"
"13:04:57","72.6","68.5","86.8","29.63","187","3.6","8.4","0.01","0.01"
"13:09:59","72.4","68","86.2","29.63","155","3.2","7.2","0.01","0.01"
"13:14:56","72.3","68.3","87.2","29.63","154","1.8","6","0.01","0.01"
"13:19:57","72.3","68.3","87.5","29.62","136","1.7","5.8","0.01","0.01"
"13:24:57","72.1","68.3","88","29.62","180","3.4","8.4","0.01","0.01"
"13:29:57","71.7","68.1","88.1","29.62","164","3.5","8.1","0.01","0.01"
"13:34:58","71.4","68.1","89.2","29.62","193","3.2","8.4","0.01","0.01"
"13:39:59","71.1","68","90","29.62","161","2.3","6","0.01","0.01"
"13:44:59","70.9","68","90.7","29.62","188","3.8","7.2","0.01","0.01"
"13:49:59","70.7","68","91.4","29.62","194","5.1","10.8","0.01","0.00"
"13:54:56","70.6","68.2","92","29.62","168","3.7","8.4","0.02","0.01"
"13:59:56","70.8","68.7","92.8","29.62","160","3","6","0.02","0.01"
"14:04:58","71","68.9","93","29.61","178","3.2","8.4","0.02","0.01"
"14:09:56","71.2","69","92.8","29.61","173","3.6","8.4","0.02","0.01"
"14:14:57","71.2","68.8","92.1","29.61","188","4.2","12","0.03","0.02"
"14:19:58","71.3","69.2","93","29.61","183","2.8","7.2","0.04","0.03"
"14:24:58","71.5","69.4","93","29.61","188","3.9","7.2","0.04","0.03"
"14:29:59","71.6","69.5","93","29.61","185","3.6","10.8","0.04","0.03"
"14:34:59","71.7","69.5","92.7","29.60","197","4.7","10.8","0.04","0.03"
"14:39:56","71.8","69.6","92.7","29.60","203","4.5","8.4","0.04","0.03"
"14:44:56","71.7","69.3","92","29.60","193","3.9","7.2","0.05","0.04"
"14:49:57","71.8","69.6","92.9","29.60","193","3.2","6","0.05","0.04"
"14:54:57","71.9","69.7","92.7","29.60","196","3.4","7.2","0.05","0.04"
"14:59:58","72","69.7","92.3","29.60","188","4.3","7.2","0.05","0.03"
"15:04:56","72.2","69.8","92.4","29.60","184","3.3","7.2","0.05","0.03"
"15:09:57","72.4","70.2","92.8","29.60","194","1.5","6","0.05","0.03"
"15:14:58","72.4","69.9","91.8","29.60","199","3.7","8.4","0.05","0.03"
"15:19:59","72.3","69.8","91.8","29.59","202","4.3","8.1","0.05","0.02"
"15:24:56","72.2","69.7","92","29.59","209","3","6.9","0.05","0.01"
"15:29:56","72.2","69.9","92.5","29.59","180","2.3","6","0.05","0.01"
"15:34:57","72.3","70.2","93","29.59","189","3.2","7.2","0.05","0.01"
"15:39:57","72.2","69.8","92.2","29.59","207","4","7.2","0.05","0.01"
"15:44:58","72.2","70","92.8","29.59","190","2.9","12","0.07","0.01"
"15:49:59","72.1","70","93","29.59","199","3.5","11.5","0.10","0.05"
"15:54:59","71.9","69.8","93","29.59","224","2","10.4","0.13","0.08"
"15:59:59","71.8","69.9","93.8","29.60","217","2.5","8.4","0.13","0.08"
"16:04:57","72.5","71","94.9","29.60","212","2.8","9.6","0.13","0.08"
"16:09:59","73.5","71.7","94.2","29.60","207","4.5","13.2","0.13","0.08"
"16:14:56","74.4","71.9","92.2","29.60","203","4.8","13.2","0.13","0.08"
"16:19:56","74.8","71.6","89.8","29.59","206","5","8.1","0.13","0.08"
"16:24:56","75","71.7","89.4","29.59","202","3.4","8.4","0.13","0.08"
"16:29:57","75.2","71.1","87.3","29.60","225","4.6","13.2","0.13","0.08"
"16:34:58","75.3","71.1","86.9","29.60","228","2.7","6","0.13","0.08"
"16:39:59","75.5","71.4","87","29.60","209","2.1","4.6","0.13","0.08"
"16:44:55","75.7","71.5","86.6","29.60","203","0.4","3.5","0.13","0.08"
"16:49:56","75.8","70.7","84.1","29.60","234","3.4","13.2","0.13","0.06"
"16:54:56","75.9","70.4","83.3","29.60","250","2.3","8.4","0.13","0.03"
"16:59:56","76","70.7","83.6","29.60","218","2.3","4.8","0.13","0.00"
"17:04:58","76","70.3","82.5","29.60","320","3.6","25.2","0.13","0.00"
"17:09:56","74.5","67.3","78.4","29.60","335","8.7","25.3","0.13","0.00"
"17:14:57","72.3","66","80.6","29.62","309","4.8","16.1","0.13","0.00"
"17:19:56","71.3","66","83.5","29.62","327","3.1","12","0.13","0.00"
"17:24:56","70.9","66.3","85.2","29.62","320","2.5","7.2","0.13","0.00"
"17:29:56","70.8","66.1","85","29.62","308","3.8","7.2","0.13","0.00"
"17:34:59","71","66.1","84.6","29.62","306","4.9","20.7","0.13","0.00"
"17:39:58","71.2","66.1","84","29.62","262","3.7","8.4","0.13","0.00"
"17:44:58","71.5","66.1","83.2","29.62","314","3.6","13.2","0.13","0.00"
"17:49:57","71.5","65.9","82.3","29.62","325","5.5","10.8","0.13","0.00"
"17:54:57","71.7","65.3","80.3","29.62","323","5.5","10.8","0.13","0.00"
"17:59:57","71.8","65.1","79.4","29.63","315","3.6","13.2","0.13","0.00"
"18:04:59","71.8","64.6","78","29.63","307","3.9","10.8","0.13","0.00"
"18:09:57","71.8","64.4","77.4","29.63","328","4.3","13.2","0.13","0.00"
"18:14:57","71.9","64","76.2","29.63","326","3.3","12","0.13","0.00"
"18:19:58","71.9","63.9","76.1","29.63","338","3.8","13.2","0.13","0.00"
"18:24:57","71.7","63.5","75.4","29.63","348","5","15","0.13","0.00"
"18:29:57","71.5","63.4","75.8","29.65","345","5.7","17.3","0.13","0.00"
"18:34:57","71.3","63.3","76.2","29.65","351","3.4","13.2","0.13","0.00"
"18:39:57","71.1","63.2","76.3","29.65","320","3.4","7.2","0.13","0.00"
"18:44:57","71","63.3","76.5","29.66","325","5.1","17.3","0.13","0.00"
"18:49:57","70.9","63","76","29.66","323","4.2","11.5","0.13","0.00"
"18:54:57","70.8","62.8","75.6","29.66","329","5.3","17.3","0.13","0.00"
"18:59:56","70.7","62.5","75.2","29.67","341","4.6","13.2","0.13","0.00"
"19:04:58","70.7","62.4","75","29.67","338","2.6","10.8","0.13","0.00"
"19:09:56","70.9","62.7","75.3","29.67","346","4.1","12","0.13","0.00"
"19:14:56","71.2","62.3","73.5","29.67","331","6","13.2","0.13","0.00"
"19:19:56","71.5","62.6","73.6","29.66","330","3.2","11.5","0.13","0.00"
"19:24:59","71.6","62.1","72.1","29.66","329","3.7","10.4","0.13","0.00"
"19:29:59","71.5","61.7","71.1","29.67","340","5.1","12","0.13","0.00"
"19:34:59","71.4","60.8","69.1","29.67","329","7","18.4","0.13","0.00"
"19:39:59","71.3","60.3","68.2","29.67","319","7.3","23","0.13","0.00"
"19:44:59","71.1","60.2","68.3","29.68","325","4.8","16.1","0.13","0.00"
"19:49:59","70.8","59.9","68.4","29.68","337","5.7","25.3","0.13","0.00"
"19:54:59","70.5","59.5","68.1","29.68","316","5.2","13.2","0.13","0.00"
"19:59:59","70.3","59.3","68.1","29.68","322","6.2","17.3","0.13","0.00"
"20:04:56","70.1","59.3","68.5","29.68","331","3.7","8.4","0.13","0.00"
"20:09:58","69.9","58.9","68","29.68","342","3.6","8.4","0.13","0.00"
"20:14:59","69.7","58.7","68","29.69","351","4.5","12","0.13","0.00"
"20:19:56","69.6","58.6","68","29.69","334","3.9","12","0.13","0.00"
"20:24:56","69.4","58.5","68.4","29.69","327","4.7","14.4","0.13","0.00"
"20:29:57","69.1","58.5","69","29.69","340","4","10.8","0.13","0.00"
"20:34:57","68.9","58.6","69.9","29.69","309","3.2","8.4","0.13","0.00"
"20:39:58","68.5","58.5","70.5","29.69","322","5.7","16.1","0.13","0.00"
"20:44:58","68.3","58.5","71","29.69","302","3.5","10.8","0.13","0.00"
"20:49:59","68.1","58.3","71","29.69","351","4.3","13.2","0.13","0.00"
"20:54:59","67.8","58.2","71.3","29.69","309","4.3","12.7","0.13","0.00"
"20:59:56","67.6","58.2","72","29.70","291","2.7","7.2","0.13","0.00"
"21:04:58","67.3","58","72","29.70","335","3.1","8.4","0.13","0.00"
"21:09:56","67.2","58","72.4","29.70","332","3.1","8.4","0.13","0.00"
"21:14:57","67.1","58.2","73","29.70","311","3.1","10.8","0.13","0.00"
"21:19:57","67","58.1","73","29.70","321","2.1","7.2","0.13","0.00"
"21:24:58","66.9","58","73","29.70","343","2.3","7.2","0.13","0.00"
"21:29:58","66.6","57.9","73.4","29.70","337","2.8","12","0.13","0.00"
"21:34:58","66.6","57.9","73.6","29.70","326","3.5","11.5","0.13","0.00"
"21:39:56","66.6","57.8","73.2","29.70","326","3.1","13.2","0.13","0.00"
"21:44:56","66.6","57.9","73.7","29.71","334","2","4.8","0.13","0.00"
"21:49:57","66.3","57.8","74","29.71","309","2","10.8","0.13","0.00"
"21:54:57","66.1","57.7","74.2","29.71","327","2.2","7.2","0.13","0.00"
"21:59:58","66.1","57.7","74.3","29.72","337","3.3","12","0.13","0.00"
"22:04:56","66","57.7","74.6","29.72","5","2.4","12","0.13","0.00"
"22:09:58","65.9","57.7","75","29.72","333","2.1","7.2","0.13","0.00"
"22:14:59","65.7","57.7","75.4","29.72","308","1.7","4.8","0.13","0.00"
"22:19:55","65.5","57.7","76","29.72","338","2.2","10.8","0.13","0.00"
"22:24:56","65.4","57.6","76","29.72","346","3.5","12","0.13","0.00"
"22:29:57","65.4","57.6","76","29.73","330","1.6","6","0.13","0.00"
"22:34:57","65.2","57.4","76","29.73","302","1","3.6","0.13","0.00"
"22:39:59","65","57.4","76.5","29.73","320","1.2","7.2","0.13","0.00"
"22:44:59","64.9","57.5","76.9","29.74","347","2","5.8","0.13","0.00"
"22:49:56","64.6","57.2","77","29.74","346","0.6","3.6","0.13","0.00"
"22:54:56","64.3","57.1","77.5","29.74","346","1","3.6","0.13","0.00"
"22:59:57","64.1","57.1","78","29.75","346","0.7","4.8","0.13","0.00"
"23:04:59","63.9","56.9","78","29.75","346","0","1.2","0.13","0.00"
"23:09:57","63.7","57","78.8","29.75","346","0.2","2.4","0.13","0.00"
"23:14:59","63.3","56.7","79","29.75","346","0","0","0.13","0.00"
"23:19:59","63.1","56.7","79.7","29.75","346","0","0","0.13","0.00"
"23:24:56","62.7","56.5","80.1","29.75","346","0","0","0.13","0.00"
"23:29:56","62.4","56.5","81","29.75","346","0","0","0.13","0.00"
"23:34:57","62","56.3","81.3","29.75","346","0","1.2","0.13","0.00"
"23:39:58","61.7","56.1","82.2","29.75","346","0","0","0.13","0.00"
"23:44:58","61.4","56.2","83","29.76","346","0","0","0.13","0.00"
"23:49:59","61","56","83.6","29.76","346","0","0","0.13","0.00"
